sat.trackr.live / text

‹ back to catalog

STARLINK-34762

NORAD 65473 · 2025-195R

PAYLOAD ACTIVE UNKNOWN

§ Identity

Operator
Country
US
Launch date
2025-09-03
Launch site
AFETR
Launch vehicle
Mass (kg)
RCS (m²)

Purposes: comms

External: N2YO · Heavens-Above · Gunter

§ Orbital elements

Epoch: 2026-09-20T21:09:37.564992Z

Period
93.85 min
Inclination
53.1626°
Eccentricity
0.0001141
Mean motion
15.34406298 rev/d
Perigee alt
461.9 km
Apogee alt
463.5 km
Semi-major
6,840.8 km
B*
4.2147e-4
RAAN
67.6203°
Arg perigee
53.4710°
Mean anomaly
306.6398°
Rev number
5,991

§ Raw data

STARLINK-347621 65473U 25195R   26263.88168478  .00013893  00000+0  42147-3 0  99902 65473  53.1626  67.6203 0001141  53.4710 306.6398 15.34406298 59912

JSON: /api/v1/satellites/65473 · /tle

For live sub-satellite position, see the globe view (requires WebGL).

§ Visibility from observer

Set your observer location to see the next 7 days of passes ≥ 10°. The values pass through the URL so the page stays shareable.

No JS? Fill the form by hand. The geolocation button needs JavaScript.